Treasure Island

Md. Asadullah

(11th july)

Stats

» Click to list general statistics » OR, select a date :

General Statistics

Visitors of the poet

Number of visitors of the poet’s mainpage in PoemHunter.Com

Attention : Numbers in this table does not indicate the total hits of poems of the poet, but indicates the hits of the poet’s main page.

Date Hits
08/26/2014 Tuesday 36
19%
08/25/2014 Monday 12
6%
08/24/2014 Sunday 14
7%
08/23/2014 Saturday 19
10%
08/22/2014 Friday 43
22%
08/21/2014 Thursday 27
14%
08/20/2014 Wednesday 61
32%
08/19/2014 Tuesday 41
21%
08/18/2014 Monday 43
22%
08/17/2014 Sunday 118
63%
08/16/2014 Saturday 187
100%
08/15/2014 Friday 109
58%
08/14/2014 Thursday 38
20%
08/13/2014 Wednesday 40
21%
08/12/2014 Tuesday 47
25%
08/11/2014 Monday 51
27%
08/10/2014 Sunday 180
96%
08/09/2014 Saturday 56
29%
08/08/2014 Friday 48
25%
08/07/2014 Thursday 27
14%

Reader rating & num.of MyPoemList’s

Click the captions of columns to change the order.

# Poem Title Submit Date Reader Rating Num.of MyPoemList’s
Rating Num.R.
1 Inner Peace? 08/17/2014 9.3 3 0
2 ME, ME and ME is what makes WE 08/16/2014 10.0 1 0
3 Inadequacies found 08/16/2014 10.0 1 0
4 A Prayer 08/15/2014 10.0 1 0
5 Dealing with Cobra 08/15/2014 10.0 1 0
6 Wealthiest of them all 08/10/2014 10.0 1 0
7 Foolish act 08/10/2014 10.0 1 0
8 Urdu- Ummat-e-Muslimah ka Haal 08/10/2014 10.0 2 0
9 Tangible Beliefs 08/10/2014 10.0 2 0
10 Steel and Paper 08/03/2014 10.0 2 0
11 I am Gaza, 'Mother of all Prisons' 07/20/2014 9.3 3 0
12 Me, The Loner 07/20/2014 10.0 1 0
13 Gaza and The Warning 07/20/2014 10.0 1 0
14 Ignorant Sufi is tool of the Satan 07/20/2014 10.0 2 0
15 Helpless finger! 06/22/2014 10.0 2 0
16 Today 05/11/2014 8.3 3 0
17 Except one 05/11/2014 7.5 2 0
18 Darwin's Theory(science or fairy-tale) 05/05/2014 7.5 2 0
19 Destination 04/26/2014 10.0 2 0
20 Don't take name of martyrs 04/20/2014 10.0 2 0
21 It could be within us 04/06/2014 10.0 2 0
22 Wall of Ego 04/06/2014 10.0 2 0
23 I Just Don't Care 04/06/2014 10.0 1 0
24 Color Unseen 04/02/2014 10.0 2 0
25 East, West, Best 04/02/2014 10.0 3 0
26 Talk/Walk 04/02/2014 10.0 1 0
27 Only one 04/02/2014 10.0 2 0
28 They all.. 03/31/2014 10.0 1 0
29 EQUAL doesn't mean IDENTICAL 03/29/2014 7.5 2 0
30 Agree or Disagree 03/29/2014 10.0 2 0
31 Different Perspective 03/29/2014 10.0 1 0
32 I Know How They Tame Wild Elephants 03/24/2014 10.0 1 0
33 Gandhiji's Statue 03/24/2014 10.0 1 0
34 Wise Men! - A Piece Of Advice 03/21/2014 10.0 1 0
35 Character Certificates 03/19/2014 10.0 1 0
36 Holi-day and Holiday 03/19/2014 10.0 1 0
37 Sun, Moon And My Imagination 03/19/2014 10.0 2 0
38 O East! 03/19/2014 10.0 1 0
39 O Tree Of Art! 03/19/2014 10.0 1 0
40 Freedom's Journey 03/17/2014 10.0 1 0
41 Declaration 03/17/2014 10.0 1 0
42 Let Me Give You This Shock(Global Warming) 03/15/2014 10.0 1 0
43 My Thoughts On Your Thoughts 03/15/2014 10.0 1 0
44 Pack Of Wolves And An Ass 03/14/2014 5.5 2 0
45 Effective Decision Making 03/14/2014 10.0 1 0
46 English translation of my Urdu 1 Poem 03/14/2014 10.0 1 0
47 - -Quran 75. The Rising Of The Dead, Resurrection- - 03/05/2014 10.0 1 0
48 Never Despise Any Old Book 03/03/2014 10.0 2 0
49 Urdu 1 03/02/2014 10.0 1 0
50 I Wished For Thousand Springs 03/01/2014 10.0 1 0
51 Buttering And Oiling 03/01/2014 10.0 1 0
52 Burn all these 'Old age homes' 03/01/2014 10.0 1 0
53 God's Mercy Prevails Over His Wrath. 03/01/2014 10.0 1 0
54 Honest/Dishonest 03/01/2014 10.0 1 0
55 Is It Something In Me..... 03/01/2014 10.0 1 0
56 Mercy 02/23/2014 10.0 1 0
57 Protest against double standards 02/23/2014 10.0 1 0
58 Two breaths of Hellfire 02/16/2014 10.0 3 0
59 Aimless iv 02/16/2014 10.0 1 0
60 Let's show the shiny part 02/16/2014 10.0 1 0
61 My Real Tongue 02/15/2014 10.0 1 0
62 Homo sapiens 02/15/2014 10.0 1 0
63 Standing amongst stones... 02/15/2014 10.0 1 0
64 Elections 2014(iii) 02/08/2014 10.0 1 0
65 Kill..... 02/08/2014 10.0 1 0
66 Soldier and Author 02/02/2014 10.0 1 0
67 Spoken words 02/02/2014 10.0 1 0
68 Death will be put to death! 02/02/2014 10.0 1 0
69 Truth's naked dance 01/26/2014 10.0 1 0
70 Broken wings and dead smiles 01/19/2014 10.0 1 0
71 Dead Leaves 01/18/2014 10.0 1 0
72 Message On 12 Rabi Ul Awal 01/14/2014 10.0 1 0
73 I doubt! 01/04/2014 10.0 1 0
74 Environment friendly Poem 01/01/2014 10.0 1 0
75 Elections 2014(i) 01/01/2014 10.0 1 0
76 Destiny is like shadow 01/01/2014 10.0 1 0
77 little by little I see my henna plant grow 01/01/2014 10.0 1 0
78 Inside Job! - 9/11 01/01/2014 10.0 1 0
79 My enemy let us compete 01/01/2014 -- 0 0
80 Why I've reached my destination so late 01/01/2014 10.0 1 0
81 Aimless ii 01/01/2014 10.0 1 0
82 Waliullah - Friend of Allah(swt) 01/01/2014 -- 0 0
83 Elections 2014(ii) 01/01/2014 10.0 1 0
84 Blessed birth of Jesus(Pbuh) - [Islamic perspective] 01/01/2014 10.0 1 0
85 Yes, I confess... 01/01/2014 10.0 1 0
86 Answering Atheism ii 01/01/2014 10.0 1 0
87 I stand 'tween right and wrong. 01/01/2014 10.0 1 0
88 Love 01/01/2014 10.0 1 0
89 All Praise Is Due To Allah 01/01/2014 10.0 1 0
90 Am I Still Alive? 01/01/2014 10.0 1 0
91 Yesterday my childhood came 01/01/2014 10.0 1 0
92 What is life? 01/01/2014 10.0 1 0
93 Satan's three knots 01/01/2014 -- 0 0
94 Sun and Doomsday 01/01/2014 10.0 1 0
95 Way to my destination 01/01/2014 -- 0 0
96 Aimless iii 01/01/2014 10.0 1 0
97 Poem 01/01/2014 10.0 1 0
98 A Muslim's prayer 01/01/2014 10.0 2 0
99 A meeting with beloved Bapu(Gandhi) 01/01/2014 10.0 1 0
100 I want to be alone 01/01/2014 -- 0 0
101 Through windows of time 01/01/2014 10.0 1 0
102 Revealed - My Patriotism 01/01/2014 10.0 1 0
103 Ant 01/01/2014 10.0 1 0
104 Have You Ever Seen It Brush? 01/01/2014 -- 0 0
105 Or is that me who is sad? 01/01/2014 10.0 1 0
106 Unwritten Soul 01/01/2014 -- 0 0
107 Aimless i 01/01/2014 10.0 1 0
108 Bomb Blast 01/01/2014 10.0 1 0
109 In Search of Fear 01/01/2014 -- 0 0
110 TEMPTATION 01/01/2014 -- 0 0
111 Revolution 01/01/2014 -- 0 0
112 SALAAT 01/01/2014 -- 0 0
113 RUGBY 01/01/2014 -- 0 0
114 Jealousy 01/01/2014 -- 0 0
115 LIE 01/01/2014 10.0 1 0
116 Death 01/01/2014 -- 0 0
117 FANTASY 01/01/2014 -- 0 0
118 My Imagination 01/01/2014 -- 0 0
119 DANCE OF A FAKIR 01/01/2014 10.0 1 0
120 I AM MAN 01/01/2014 10.0 1 0
121 NOSTALGIA 01/01/2014 10.0 1 0
122 GOING INTO DEPRESSION 01/01/2014 -- 0 0
123 SILENCE SPEAKS 01/01/2014 -- 0 0
124 Blessed Birth of Prophet(PBUH) 01/01/2014 10.0 1 0
125 ISLAM 01/01/2014 -- 0 0
126 CIGARETTE PERSONIFIED 01/01/2014 10.0 1 0
127 SUICIDE 01/01/2014 10.0 1 0
128 *REFLECTION 01/01/2014 10.0 1 0
129 Where are you my love, where are you? 01/01/2014 10.0 1 0
130 LMDians 01/01/2014 10.0 1 0
131 MAN OR MACHINE 01/01/2014 10.0 1 0
132 ISLAM THE TOUCHSTONE 01/01/2014 -- 0 0
133 EXTRA INITIATIVE 01/01/2014 -- 0 0
134 SECRET REVEALED 01/01/2014 -- 0 0
135 FRIEND FOUND 01/01/2014 -- 0 0
136 IF......., THEN 01/01/2014 -- 0 0
137 ACCEPT ME OR REJECT ME 01/01/2014 10.0 1 0
138 Voice Against Terrorism. 01/01/2014 10.0 1 0
139 Injustice and Patience 01/01/2014 10.0 1 0
140 SECRET SINS 01/01/2014 -- 0 0
141 Urdu - In praise of Prophet(Pbuh) 01/01/2014 -- 0 0
142 Urdu - Dosti 01/01/2014 -- 0 0
143 Urdu - 01/01/2014 -- 0 0
144 Answering Atheism i 01/01/2014 10.0 1 0
145 Night Shift 01/01/2014 -- 0 0
146 Terrorism condemned 01/01/2014 10.0 1 0
[Hata Bildir]